Location: Budapest
(47.4979°N, 19.0402°E)
Time: 02:39:26
(UTC+02:00)

ISS - Pass Details

Date: 07 October 2017
Orbit: 401 x 408 km, 51.6° (Epoch: 22 October)

Event Time Altitude Azimuth Distance (km) Brightness Sun altitude
Rises 20:31:03 0° 293° (WNW) 2,330 1.4 -24.2°
Reaches altitude 10° 20:33:09 10° 295° (WNW) 1,469 0.1 -24.5°
Enters shadow 20:35:04 32° 301° (WNW) 722 -2.0 -24.8°
